Wakefield, VA

4:32 AM EDT on October 17, 2019 (GMT -0400)
Wakefield Municipal

Weather History for KAKQ - July, 2019

Change the Weather History Date:

Sunday, July 14, 2019

  Actual Average (WUND) Record (WUND)
Temperature  
Mean Temperature 82 °F -  
Max Temperature 95 °F - - (-1)
Min Temperature 71 °F - - (-1)
Cooling Degree Days 17    
Growing Degree Days 32 (Base 50)    
Moisture  
Dew Point 71 °F    
Average Humidity 73    
Maximum Humidity 96    
Minimum Humidity 41    
Precipitation  
Precipitation 0.00 in - - ()
Sea Level Pressure  
Sea Level Pressure 30.01 in    
Wind  
Wind Speed 1 mph (WNW)    
Max Wind Speed 6 mph    
Max Gust Speed -    
Visibility 8 miles    
Events      
Averages and records for this station are not official NWS values.
T = Trace of Precipitation, MM = Missing Value Source: NWS Daily Summary

Daily Weather History Graph

Daily Weather History Graph

Search for Another Location

Airport or City:

Astronomy

Jul. 14, 2019 Rise Set
Actual Time 5:59 AM EDT 8:28 PM EDT
Civil Twilight 5:29 AM EDT 8:58 PM EDT
Nautical Twilight 4:52 AM EDT 9:35 PM EDT
Astronomical Twilight 4:10 AM EDT 10:16 PM EDT
Moon 6:48 PM EDT (7/14) 3:58 AM EDT (7/14)
Length of Visible Light 15h 28m
Length of Day
14h 28m
Waxing Gibbous, 95% of the Moon is Illuminated
Jul 14
Waxing Gibbous
Jul 16
Full
Jul 24
Last Quarter
Jul 31
New
Aug 7
First Quarter

Hourly Weather History & Observations

Time (EDT) Temp. Heat Index Dew Point Humidity Pressure Visibility Wind Dir Wind Speed Gust Speed Precip Events Conditions
12:54 AM 75.9 °F - 72.0 °F 87% 29.99 in 8.0 mi Calm Calm - N/A   Clear
1:54 AM 75.0 °F - 72.0 °F 90% 29.99 in 8.0 mi Calm Calm - N/A   Clear
2:54 AM 73.9 °F - 71.1 °F 91% 29.98 in 8.0 mi Calm Calm - N/A   Clear
3:54 AM 72.0 °F - 70.0 °F 93% 29.98 in 4.0 mi Calm Calm - N/A   Clear
4:54 AM 73.0 °F - 71.1 °F 93% 29.99 in 4.0 mi Calm Calm - N/A   Clear
5:28 AM 71.1 °F - 70.0 °F 96% 29.99 in 2.0 mi Calm Calm - N/A   Clear
5:38 AM 72.0 °F - 70.0 °F 93% 29.99 in 4.0 mi Calm Calm - N/A   Clear
5:54 AM 71.1 °F - 69.1 °F 93% 29.99 in 3.0 mi Calm Calm - N/A   Clear
6:54 AM 73.0 °F - 71.1 °F 93% 30.01 in 4.0 mi Calm Calm - N/A   Clear
7:54 AM 79.0 °F - 73.9 °F 84% 30.03 in 8.0 mi Calm Calm - N/A   Clear
8:54 AM 82.9 °F 90.2 °F 75.0 °F 77% 30.04 in 10.0 mi Calm Calm - N/A   Clear
9:54 AM 87.1 °F 96.3 °F 75.0 °F 67% 30.04 in 10.0 mi Variable 3.5 mph - N/A   Clear
10:54 AM 89.1 °F 96.0 °F 72.0 °F 57% 30.04 in 10.0 mi Variable 3.5 mph - N/A   Clear
11:54 AM 91.0 °F 95.6 °F 69.1 °F 48% 30.04 in 10.0 mi Variable 3.5 mph - N/A   Clear
12:54 PM 91.9 °F 95.9 °F 68.0 °F 45% 30.04 in 10.0 mi Variable 3.5 mph - N/A   Clear
1:54 PM 93.0 °F 95.9 °F 66.0 °F 41% 30.03 in 10.0 mi NNW 4.6 mph - N/A   Clear
2:54 PM 93.0 °F 97.9 °F 69.1 °F 45% 30.01 in 10.0 mi Calm Calm - N/A   Clear
3:54 PM 93.0 °F 97.4 °F 68.0 °F 44% 30.00 in 10.0 mi NNW 5.8 mph - N/A   Clear
4:54 PM 93.9 °F 98.6 °F 68.0 °F 43% 29.99 in 10.0 mi WSW 4.6 mph - N/A   Clear
5:54 PM 93.9 °F 100.3 °F 70.0 °F 46% 29.98 in 10.0 mi West 4.6 mph - N/A   Clear
6:54 PM 91.9 °F 98.4 °F 71.1 °F 50% 29.99 in 10.0 mi WSW 3.5 mph - N/A   Clear
7:54 PM 84.9 °F 93.3 °F 75.0 °F 72% 29.99 in 10.0 mi Calm Calm - N/A   Clear
8:54 PM 81.0 °F 86.7 °F 75.0 °F 82% 30.00 in 10.0 mi Calm Calm - N/A   Clear
9:54 PM 78.1 °F - 73.9 °F 87% 30.01 in 10.0 mi Calm Calm - N/A   Clear
10:54 PM 77.0 °F - 73.9 °F 90% 30.02 in 8.0 mi Calm Calm - N/A   Clear
11:54 PM 75.9 °F - 73.0 °F 91% 30.03 in 9.0 mi Calm Calm - N/A   Clear